Regional Weather Roundup
Issued by NWS Kansas City/Pleasant Hill, MO

Home | Current Version | Previous Version | Graphics & Text | Print | Product List | Glossary Off
Versions: 1 2 3 4 5 6 7 8 9 10 11 12 13 14 15 16 17 18 19 20 21 22 23 24 25 26 27 28 29 30 31 32 33 34 35 36 37 38 39 40 41 42 43 44 45 46 47 48 49 50

000
ASUS43 KEAX 181211
RWREAX

WEATHER ROUNDUP FOR EASTERN KANSAS AND NORTHWEST MISSOURI
NATIONAL WEATHER SERVICE KANSAS CITY/PLEASANT HILL MO
700 AM CDT THU SEP 18 2014

KSZ040-057-103>105-MOZ028-029-037-043-181300-
...KANSAS CITY METROPOLITAN AREA...

CITY           SKY/WX    TMP DP  RH WIND       PRES   REMARKS
K.C. INTL      FOG       60  59  96 E9        30.00R VSB 1/2
6HR MIN TEMP:  60; 6HR MAX TEMP:  65;

K.C. DOWNTOWN  CLOUDY    63  60  90 NE9       29.99R FOG
6HR MIN TEMP:  63; 6HR MAX TEMP:  65;

LEES SUMMIT    CLOUDY    61  59  93 E6        30.01R FOG
6HR MIN TEMP:  61; 6HR MAX TEMP:  64;

OLATHE - IXD   CLOUDY    62  61  96 E9        29.99S FOG
OLATHE - OJC   CLOUDY    61  60  97 E7        29.99R FOG
6HR MIN TEMP:  61; 6HR MAX TEMP:  64;

LAWRENCE       CLOUDY    63  61  93 E6        29.99R FOG

$$

MOZ001>008-011>017-020>025-030>033-038>040-044>046-053-054-181300-
...NORTHERN AND CENTRAL MISSOURI...

CITY           SKY/WX    TMP DP  RH WIND       PRES   REMARKS
ST. JOSEPH     CLOUDY    60  59  96 MISG      30.01R
6HR MIN TEMP:  59; 6HR MAX TEMP:  65;

MOSBY          CLOUDY    59  59 100 E7        30.02R FOG
WHITEMAN AFB   CLOUDY    62  61  97 E6        30.01R FOG
6HR MIN TEMP:  62; 6HR MAX TEMP:  62;

CLINTON        CLOUDY    64  64 100 CALM      30.01R FOG
SEDALIA        FOG       61  60  97 E5        30.02R VSB 1/2
6HR MIN TEMP:  61; 6HR MAX TEMP:  63;

WARSAW         NOT AVBL
MARSHALL       CLOUDY    63  63 100 NE5       30.02R FOG
CHILLICOTHE      N/A     59  57  93 E5        30.04R
6HR MIN TEMP:  59; 6HR MAX TEMP:  63;

KIRKSVILLE     FOG       53  53 100 E3        30.04S VSB 1/4
6HR MIN TEMP:  53; 6HR MAX TEMP:  56;


$$

MOZ041-047>049-056>058-063>065-088>090-097-181300-
...EASTERN AND SOUTHERN MISSOURI...

CITY           SKY/WX    TMP DP  RH WIND       PRES   REMARKS
ST. LOUIS INTL CLOUDY    62  55  77 E6        30.03R
6HR MIN TEMP:  61; 6HR MAX TEMP:  63;

SPIRIT OF STL  CLOUDY    61  58  90 CALM      30.01R
COLUMBIA       FOG       59  59 100 E6          N/A  VSB 3/4
JEFFERSON CITY CLOUDY    61  59  93 E6        30.02R FOG
MEXICO         CLOUDY   N/A N/A N/A CALM      30.03R FOG
HANNIBAL       CLOUDY    54  52  94 CALM      30.05R FOG
ROLLA          FOG       58  58 100 E6        30.00R VSB 1/2
LEBANON        CLOUDY    61  59  94 E3        30.01R FOG
OSAGE BEACH    CLOUDY    63  61  94 E3        30.01R
SPRINGFIELD    LGT RAIN  65  63  93 CALM      29.99R
BRANSON        LGT RAIN  64  63  94 NW7G24    29.98S
NEVADA         DRIZZLE   64  63  94 SW3       30.02R
JOPLIN         TSTM      64  62  93 SW9       30.05R FOG
WEST PLAINS    FOG       61  59  93 CALM      30.01R VSB 1/2

$$

IAZ060-094-KSZ022-034>040-054-083-096-NEZ052-066-093-181300-
...KANSAS...SOUTHEAST NEBRASKA AND IOWA...

CITY           SKY/WX    TMP DP  RH WIND       PRES   REMARKS
TOPEKA         CLOUDY    64  63  96 E10       29.97S FOG
6HR MIN TEMP:  64; 6HR MAX TEMP:  66;

MANHATTAN      CLOUDY    66  64  93 E12       29.96R FOG
EMPORIA        TSTM      64  64 100 NW10      29.96R
CHANUTE        LGT RAIN  65  63  93 SE13      29.93F
WICHITA        MOCLDY    70  67  90 SE14      29.92R
OMAHA          CLOUDY    60  57  89 SE10      30.01R FOG
LINCOLN        CLOUDY    63  61  93 SE8       30.00R FOG
FALLS CITY     CLOUDY    62  62 100 E5        29.99R FOG
LAMONI         FOG       56  56 100 E5        30.03S VSB 1/4
DES MOINES     CLOUDY    57  54  89 SE6       30.06R FOG

$$




USA.gov is the U.S. government's official web portal to all federal, state and local government web resources and services.